Location: Kosice
(0.0000°N, 21.2500°E)
Time: 15:36:24
(UTC+02:00)

Daily predictions for brighter satellites

Satellite Brightness Start Highest point End
(mag) Time Altitude Azimuth Time Altitude Azimuth Time Altitude Azimuth
CZ-3C R/B 1.5 18:46:06 10° NW 18:48:48 57° NNE 18:58:26 10° ESE
Cosmos 2285 Rocket 4.3 18:48:43 10° N 18:54:45 48° ENE 19:00:46 10° SSE
Palapa 6 Rocket 3.9 18:50:16 10° SW 18:56:10 48° SSE 19:00:56 10° E
Cosmos 2333 Rocket 2.5 18:51:42 10° S 18:57:09 46° ESE 19:02:32 10° NNE
CZ-4 R/B 4.4 18:54:18 10° SSE 18:58:24 64° ENE 19:02:28 10° N
SWIFT 2.7 18:55:21 10° SW 18:59:29 48° SSE 19:03:39 10° E
ARIANE 5 DEB (SYLDA) 4.0 18:57:12 10° WNW 19:00:49 54° NNE 19:08:36 10° E
YAOGAN 1 2.5 18:56:52 10° SSE 19:01:10 69° ENE 19:05:27 10° N
COSMOS 2428 3.0 18:56:32 10° SSW 19:02:16 77° WNW 19:07:58 10° N
IUS-9 SRM-1 3.4 19:01:56 10° WNW 19:03:08 16° NNW 19:04:35 10° NNE
ISS -2.0 19:02:07 10° WNW 19:05:03 30° SW 19:07:59 10° S
Cosmos 1766 Rocket 4.4 19:04:33 10° NNW 19:08:48 55° W 19:13:07 10° S
Aureole 1 Rocket 2.8 19:07:44 10° N 19:11:05 54° E 19:15:20 10° SSE
ALOS 2.3 19:06:34 10° S 19:11:14 85° WSW 19:15:53 10° NNW
Cosmos 1300 2.8 19:08:36 10° S 19:12:25 78° W 19:16:13 10° N
Cosmos 2219 Rocket 2.2 19:07:24 10° SSW 19:13:05 86° ESE 19:18:45 10° NNE
Cosmos 2237 Rocket 2.8 19:09:39 10° SSE 19:14:39 33° ESE 19:19:38 10° NE
Skynet4D Del rocket 4.0 19:12:26 10° NW 19:17:38 47° NNE 19:21:45 16° E
Cosmos 1500 Rocket 3.7 19:19:36 10° N 19:23:52 50° E 19:28:07 10° SSE
Ariane H10+ 1.7 19:24:35 10° WNW 19:26:54 41° NNE 19:29:58 17° ENE
Cosmos 2263 Rocket 2.4 19:22:16 10° N 19:27:39 47° ENE 19:32:59 10° SSE
IRAS Rocket 4.2 19:22:34 10° SSE 19:28:02 62° ENE 19:33:27 10° N
Cosmos 1818 4.3 19:27:20 10° NW 19:32:36 54° WSW 19:37:52 10° S
Cosmos 1455 3.3 19:37:00 24° ENE 19:37:00 24° ENE 19:39:21 10° NE
Cosmos 2058 4.1 19:34:47 10° NNW 19:38:48 46° W 19:42:50 10° SSW
OAO 3 Rocket 3.6 19:41:15 10° WSW 19:46:00 62° NW 19:49:50 15° NE
Cosmos 2154 Rocket 3.9 19:40:31 10° S 19:46:50 78° E 19:53:06 10° N
FREGAT/IRIS 3.7 19:48:18 30° NNE 19:48:18 30° NNE 19:50:04 10° N
Gblst 52 Del rocket 4.3 19:41:49 10° SSW 19:48:16 63° SE 19:53:01 15° NE
SPOT 3 Rocket 3.5 19:44:27 10° SSE 19:49:41 86° ENE 19:54:51 10° NNW
Ariane H10-3 1.5 19:48:12 10° W 19:50:31 43° SSW 19:50:31 43° SSW
GPS 2-12 Rocket1 3.3 19:46:14 10° WNW 19:50:53 61° SSW 19:52:29 37° SE
Cosmos 1048 Rocket 4.0 19:46:10 10° NNW 19:51:29 88° WSW 19:56:51 10° SSE
Ariane H10+ 4.1 19:47:14 10° WNW 19:52:02 66° N 19:59:46 24° E
Cosmos 1269 Rocket 4.0 19:46:53 10° N 19:52:06 62° ENE 19:55:07 25° SSE
Cosmos 2344 4.0 19:47:33 10° S 19:56:20 42° ESE 20:03:00 12° NE
ARIANE 3 DEB 3.9 19:52:35 10° WSW 19:58:39 35° S 19:59:20 33° SSE
SL-16 R/B 4.1 19:59:25 10° S 20:00:14 14° SSE 20:00:14 14° SSE
Hubble Space Telescope 2.4 20:03:15 10° W 20:06:55 30° NNW 20:08:39 22° NNE
In-Cosmos 22 Rocket 4.2 20:01:53 10° N 20:06:44 50° ENE 20:06:44 50° ENE
Cosmos 2341 Rocket 3.9 20:03:16 10° S 20:09:41 79° E 20:16:02 10° N
NOSS 3-1 (C) 4.4 20:01:39 10° NNW 20:10:11 73° WSW 20:18:02 13° SSE
NOSS 3-1 (A) 4.1 20:02:28 10° NNW 20:11:03 81° ENE 20:16:20 27° SSE
ARIANE 5 DEB (SYLDA) 3.3 20:03:00 10° W 20:11:58 75° S 20:12:32 66° SE
Cosmos 962 Rocket 4.3 20:06:29 10° S 20:12:37 89° E 20:18:43 10° N
Cosmos 1328 Rocket 3.6 20:16:02 47° SSW 20:17:13 74° W 20:21:35 10° N
Tiangong 2 3.2 20:14:31 10° WNW 20:16:21 27° W 20:16:21 27° W
DELTA 2 R/B (1) 4.5 20:15:47 10° NNW 20:20:03 34° NNE 20:20:03 34° NNE
Cosmos 1295 Rocket 4.5 20:14:29 10° S 20:20:50 84° W 20:27:10 10° N
GEOS 3 Rocket 3.6 20:26:38 40° NNE 20:28:31 74° WNW 20:33:36 10° SSW
Ariane H10+ 3.7 20:24:20 10° WSW 20:29:31 62° SSE 21:28:44 10° E
USA 267 3.7 20:24:29 10° NNE 20:30:53 60° NW 20:37:18 10° SW
BLOCK DM-SL R/B 2.9 20:18:42 10° W 20:35:16 70° N 20:35:19 70° N
SL-8 Rocket 4.1 20:37:17 63° NNE 20:37:17 63° NNE 20:42:28 10° N
Centaur AC-69 3.8 20:27:30 10° WSW 20:37:59 67° WNW 20:37:59 67° WNW
SWIFT 4.3 20:37:24 10° W 20:39:50 28° WNW 20:39:50 28° WNW
BLOCK DM-SL R/B 4.1 20:42:41 10° W 21:00:51 86° W 21:00:51 86° W
